KA2K Weather Reports


time (UTC)temp
C
wind
direction
speed
KPH
gust
KPH
rain 1hr
cm
rain 24hr
cm
rain mn
cm
humidity
%
barometer
mb
20260504175506 21 300 3.2 17.7 0.00 0.00 0.00 30 1011.8
20260504175011 22 17 4.8 17.7 0.00 0.00 0.00 31 1011.9
20260504174508 22 16 4.8 14.5 0.00 0.00 0.00 30 1012.0
20260504174003 22 322 4.8 14.5 0.00 0.00 0.00 31 1012.0
20260504173504 22 14 3.2 14.5 0.00 0.00 0.00 31 1012.1
20260504173012 22 307 4.8 11.3 0.00 0.00 0.00 32 1012.0
20260504172504 22 205 3.2 12.9 0.00 0.00 0.00 32 1012.0
20260504172005 22 320 4.8 12.9 0.00 0.00 0.00 33 1012.0
20260504171517 21 309 4.8 12.9 0.00 0.00 0.00 32 1012.1
20260504171006 22 329 4.8 12.9 0.00 0.00 0.00 31 1012.2
20260504170510 21 298 3.2 12.9 0.00 0.00 0.00 33 1012.2
20260504151010 20 138 3.2 8.0 0.00 0.00 0.00 42 1013.6
20260504150514 19 241 1.6 19.3 0.00 0.00 0.00 43 1013.5
20260504141010 17 152 3.2 14.5 0.00 0.00 0.00 48 1013.8
20260504140510 17 300 3.2 14.5 0.00 0.00 0.00 51 1013.7
20260504130513 15 144 3.2 9.7 0.00 0.00 0.00 58 1014.4
20260504110502 5 133 0.0 0.0 0.00 0.00 0.00 82 1015.1
20260504100505 3 167 0.0 0.0 0.00 0.00 0.00 81 1015.1
20260504082003 6 202 0.0 0.0 0.00 0.00 0.00 72 1015.0
20260504081524 6 244 0.0 0.0 0.00 0.00 0.00 72 1015.0
20260504081005 6 198 0.0 1.6 0.00 0.00 0.00 72 1015.0
20260504080506 6 198 0.0 1.6 0.00 0.00 0.00 73 1015.0
20260504050507 7 250 0.0 3.2 0.00 0.00 0.00 62 1014.4
20260504050016 7 271 0.0 3.2 0.00 0.00 0.00 63 1014.4
20260504045507 7 271 0.0 3.2 0.00 0.00 0.00 63 1014.4
20260504045007 7 253 0.0 3.2 0.00 0.00 0.00 63 1014.3
20260504044526 7 250 0.0 3.2 0.00 0.00 0.00 64 1014.3
20260504044006 7 207 0.0 0.0 0.00 0.00 0.00 65 1014.3
20260504043507 7 205 0.0 0.0 0.00 0.00 0.00 65 1014.3
20260504043024 7 205 0.0 0.0 0.00 0.00 0.00 62 1014.2
20260504042507 7 201 0.0 0.0 0.00 0.00 0.00 62 1014.1
20260504042004 7 191 0.0 0.0 0.00 0.00 0.00 61 1014.1
20260504041511 7 200 0.0 0.0 0.00 0.00 0.00 62 1014.0
20260504041005 7 200 0.0 0.0 0.00 0.00 0.00 61 1013.9
20260504040504 7 200 0.0 0.0 0.00 0.00 0.00 60 1013.9
20260504040014 7 200 0.0 0.0 0.00 0.00 0.00 60 1013.9
20260504035512 7 230 0.0 0.0 0.00 0.00 0.00 59 1013.9
20260504035007 7 224 0.0 0.0 0.00 0.00 0.00 60 1013.7
20260504034531 7 224 0.0 0.0 0.00 0.00 0.00 60 1013.6
20260504034006 7 223 0.0 0.0 0.00 0.00 0.00 61 1013.7
20260504033502 7 233 0.0 0.0 0.00 0.00 0.00 59 1013.7
20260504033018 7 205 0.0 0.0 0.00 0.00 0.00 59 1013.6
20260504032501 7 206 0.0 0.0 0.00 0.00 0.00 61 1013.6
20260504032003 7 214 0.0 0.0 0.00 0.00 0.00 62 1013.6
20260504031509 7 214 0.0 0.0 0.00 0.00 0.00 64 1013.5
20260504031005 7 214 0.0 0.0 0.00 0.00 0.00 63 1013.5
20260504030507 7 214 0.0 0.0 0.00 0.00 0.00 63 1013.5
20260504030014 7 214 0.0 0.0 0.00 0.00 0.00 61 1013.7
20260504025507 7 260 0.0 0.0 0.00 0.00 0.00 61 1013.7
20260504025004 7 260 0.0 0.0 0.00 0.00 0.00 62 1013.7
20260504024540 7 260 0.0 0.0 0.00 0.00 0.00 62 1013.7
20260504024008 7 260 0.0 0.0 0.00 0.00 0.00 63 1013.7
20260504023507 7 260 0.0 0.0 0.00 0.00 0.00 62 1013.8
20260504023024 7 260 0.0 0.0 0.00 0.00 0.00 64 1013.7
20260504022510 7 260 0.0 0.0 0.00 0.00 0.00 64 1013.7
20260504022007 7 260 0.0 0.0 0.00 0.00 0.00 64 1013.7
20260504021506 7 260 0.0 0.0 0.00 0.00 0.00 62 1013.8
20260504021002 7 260 0.0 0.0 0.00 0.00 0.00 62 1013.7
20260504020502 8 260 0.0 0.0 0.00 0.00 0.00 62 1013.7
20260504020012 8 260 0.0 0.0 0.00 0.00 0.00 61 1013.8
20260504015505 7 260 0.0 0.0 0.00 0.00 0.00 64 1013.7
20260504015006 7 260 0.0 0.0 0.00 0.00 0.00 65 1013.7
20260504014517 8 260 0.0 0.0 0.00 0.00 0.00 65 1013.6
20260504014005 8 260 0.0 0.0 0.00 0.00 0.00 64 1013.7
20260504013506 8 260 0.0 0.0 0.00 0.00 0.00 62 1013.7
20260504013023 8 260 0.0 0.0 0.00 0.00 0.00 61 1013.7
20260504012507 8 260 0.0 0.0 0.00 0.00 0.00 59 1013.6
20260504012008 8 260 0.0 0.0 0.00 0.00 0.00 57 1013.5
20260504011525 8 269 0.0 0.0 0.00 0.00 0.00 57 1013.4
20260504011003 8 269 0.0 0.0 0.00 0.00 0.00 58 1013.3
20260504010505 8 270 0.0 0.0 0.00 0.00 0.00 56 1013.2
20260504010011 9 270 0.0 0.0 0.00 0.00 0.00 55 1013.1
20260504005504 9 270 0.0 0.0 0.00 0.00 0.00 57 1013.0
20260504005003 10 270 0.0 0.0 0.00 0.00 0.00 55 1013.0
20260504004532 10 270 0.0 0.0 0.00 0.00 0.00 53 1013.0
20260504004006 10 270 0.0 0.0 0.00 0.00 0.00 55 1012.9
20260504003507 10 270 0.0 0.0 0.00 0.00 0.00 51 1012.8
20260504003019 10 270 0.0 0.0 0.00 0.00 0.00 48 1012.7
20260504002509 11 270 0.0 0.0 0.00 0.00 0.00 47 1012.6
20260504002010 11 270 0.0 0.0 0.00 0.00 0.00 44 1012.5
20260504001525 11 274 0.0 0.0 0.00 0.00 0.00 43 1012.5
20260504001010 11 274 0.0 0.0 0.00 0.00 0.00 44 1012.5
20260504000511 12 274 0.0 0.0 0.00 0.00 0.00 43 1012.4
20260504000027 12 274 0.0 0.0 0.00 0.00 0.00 40 1012.4
20260503235502 12 265 0.0 0.0 0.00 0.00 0.00 42 1012.4
20260503235002 12 252 0.0 0.0 0.00 0.00 0.00 40 1012.3
20260503234513 12 258 0.0 0.0 0.00 0.00 0.00 39 1012.2
20260503234005 13 258 0.0 3.2 0.00 0.00 0.00 38 1012.2
20260503233505 13 261 0.0 6.4 0.00 0.00 0.00 36 1012.1
20260503233017 13 300 3.2 6.4 0.00 0.00 0.00 35 1012.1
20260503232505 13 251 0.0 6.4 0.00 0.00 0.00 34 1012.1
20260503232008 14 330 1.6 6.4 0.00 0.00 0.00 32 1012.1
20260503231522 14 322 1.6 6.4 0.00 0.00 0.00 34 1012.0
20260503231010 14 300 1.6 6.4 0.00 0.00 0.00 34 1012.0
20260503230511 14 269 1.6 6.4 0.00 0.00 0.00 33 1012.0
20260503230028 14 304 1.6 11.3 0.00 0.00 0.00 33 1012.0
20260503225509 14 275 1.6 11.3 0.00 0.00 0.00 32 1012.1
20260503225012 15 328 1.6 6.4 0.00 0.00 0.00 33 1012.0
20260503224509 15 277 1.6 4.8 0.00 0.00 0.00 32 1012.0
20260503224008 15 318 1.6 8.0 0.00 0.00 0.00 32 1012.0
20260503223506 15 290 3.2 8.0 0.00 0.00 0.00 31 1011.9
20260503223013 15 350 1.6 14.5 0.00 0.00 0.00 30 1012.0
20260503222505 15 346 4.8 14.5 0.00 0.00 0.00 30 1011.9
20260503222005 15 289 3.2 14.5 0.00 0.00 0.00 30 1011.8
20260503221521 15 351 8.0 14.5 0.00 0.00 0.00 30 1011.8
20260503221009 15 238 4.8 12.9 0.00 0.00 0.00 31 1011.9
20260503220508 15 360 4.8 12.9 0.00 0.00 0.00 31 1011.8
20260503220027 15 241 1.6 12.9 0.00 0.00 0.00 32 1011.9
20260503215507 15 280 4.8 12.9 0.00 0.00 0.00 31 1011.9
20260503215006 15 296 3.2 9.7 0.00 0.00 0.00 31 1011.9
20260503214527 15 292 4.8 9.7 0.00 0.00 0.00 30 1011.9
20260503214011 15 14 4.8 12.9 0.00 0.00 0.00 30 1011.9
20260503213506 15 292 4.8 12.9 0.00 0.00 0.00 31 1011.8
20260503213017 15 290 4.8 11.3 0.00 0.00 0.00 31 1012.0
20260503212506 15 360 4.8 16.1 0.00 0.00 0.00 31 1011.8
20260503212009 15 311 4.8 16.1 0.00 0.00 0.00 30 1011.7
20260503211529 15 290 3.2 12.9 0.00 0.00 0.00 32 1011.8
20260503211006 15 345 3.2 12.9 0.00 0.00 0.00 31 1011.9
20260503210506 15 319 3.2 14.5 0.00 0.00 0.00 30 1012.0
20260503210023 15 351 6.4 14.5 0.00 0.00 0.00 30 1011.9
20260503205509 15 315 3.2 16.1 0.00 0.00 0.00 29 1011.9
20260503205010 15 164 1.6 14.5 0.00 0.00 0.00 31 1012.0
20260503204524 15 302 3.2 12.9 0.00 0.00 0.00 29 1011.9
20260503204009 15 319 6.4 12.9 0.00 0.00 0.00 29 1011.9
20260503203510 15 9 6.4 17.7 0.00 0.00 0.00 30 1011.8
20260503203028 15 161 4.8 17.7 0.00 0.00 0.00 30 1011.8
20260503202503 15 280 9.7 17.7 0.00 0.00 0.00 29 1012.0
20260503202007 15 269 4.8 14.5 0.00 0.00 0.00 32 1011.9
20260503201516 15 19 4.8 17.7 0.00 0.00 0.00 31 1011.9
20260503201005 15 311 6.4 17.7 0.00 0.00 0.00 30 1011.9
20260503200506 15 286 6.4 12.9 0.00 0.00 0.00 31 1011.9
20260503200020 15 351 4.8 12.9 0.00 0.00 0.00 30 1011.8
20260503195512 15 32 4.8 12.9 0.00 0.00 0.00 31 1011.9
20260503195012 15 351 4.8 14.5 0.00 0.00 0.00 30 1011.8
20260503194525 15 275 1.6 14.5 0.00 0.00 0.00 34 1011.9
20260503194007 15 348 3.2 11.3 0.00 0.00 0.00 29 1011.9
20260503193510 15 232 4.8 11.3 0.00 0.00 0.00 31 1012.0
20260503193037 15 26 4.8 16.1 0.00 0.00 0.00 32 1012.0
20260503192510 15 296 4.8 16.1 0.00 0.00 0.00 30 1012.0
20260503192010 15 349 4.8 11.3 0.00 0.00 0.00 30 1012.2
20260503191515 15 316 4.8 11.3 0.00 0.00 0.00 32 1012.1
20260503191006 15 9 4.8 12.9 0.00 0.00 0.00 32 1012.1
20260503190506 14 319 4.8 17.7 0.00 0.00 0.00 32 1012.3
20260503190026 15 269 4.8 17.7 0.00 0.00 0.00 34 1012.3
20260503185507 15 229 3.2 12.9 0.00 0.00 0.00 32 1012.5
20260503185003 14 335 4.8 12.9 0.00 0.00 0.00 33 1012.5
20260503184504 13 68 4.8 22.5 0.00 0.00 0.00 33 1012.7
20260503184003 14 348 6.4 22.5 0.00 0.00 0.00 32 1012.6
20260503183502 14 351 4.8 11.3 0.00 0.00 0.00 33 1012.6
20260503183007 14 10 3.2 12.9 0.00 0.00 0.00 36 1012.6
20260503182502 14 9 3.2 12.9 0.00 0.00 0.00 38 1012.7
20260503182008 13 313 4.8 12.9 0.00 0.00 0.00 38 1012.9
20260503181513 12 9 4.8 12.9 0.00 0.00 0.00 35 1012.9
20260503181009 13 308 3.2 17.7 0.00 0.00 0.00 37 1012.9
20260503180503 13 221 6.4 17.7 0.00 0.00 0.00 36 1012.8
20260503180017 13 308 4.8 12.9 0.00 0.00 0.00 35 1012.8